www.pogodaiklimat.ru

ПОГОДА в Kuantan

  • Прогноз погоды в Kuantan
  • Монитор погоды в Kuantan
  • Климат города

АРХИВ ПОГОДЫ в Kuantan

Время (UTC), дата Ветер
(напр.,м/с)
 
Видим.   Явления Облачность Т
(С)
Тd
(С)
f
(%)
Тe
(С)
Тes
(С)
Комфортность P
(гПа)
Po
(гПа)
Тmin
(С)
Tmax
(С)
R
(мм)
S
(см)
12 15.01 З 1 12 км в посл. час гроза 8/3 720 м
[Sc Ac lent Cs]
+25.3 +23.9 92 +35 +35 очень
душно
1008.8 1007.0 +33.1
15 15.01 штиль 0 9000 м зарница 8/4 500 м
[Cb cap Ac lent Ci sp]
+25.5 +24.5 94 +36 +36 очень
душно
1010.7 1008.9
18 15.01 ЮВ 1 8000 м дымка 8/3 180 м
[Sc Ac trans Ci sp]
+24.1 +23.6 97 +33 +33 очень
душно
1010.2 1008.4
21 15.01 СЗ 1 7000 м дымка 8/4 30 м
[Sc Ac trans Ci sp]
+23.5 +23.1 98 +31 +31 очень
душно
1008.7 1006.9
00 16.01 В 1 9000 м дымка 8/3 240 м
[Sc Ac lent Ci fib]
+23.6 +23.2 98 +32 +32 очень
душно
1010.5 1008.7 +23.4
03 16.01 Ю 4 14 км мгла 8/1 570 м
[Cu med, cong Ac lent Ci sp]
+29.3 +26.7 86 +46 +50 опасность
перегрева
1011.0 1009.3
06 16.01 СЗ 3 20 км мгла 8/4 600 м
[Cu med, cong Ac lent Ci sp]
+31.6 +27.1 77 +50 +55 опасность
перегрева
1008.1 1006.4
09 16.01 В 2 6000 м гроза, ливневой дождь 8/4 500 м
[Cb cap Ac lent Cs]
+29.6 +26.7 84 +46 +48 опасность
перегрева
1006.5 1004.8
12 16.01 СВ 2 12 км зарница {гроза, дождь} 8/3 500 м
[Cb cap Ac trans Ci sp]
+27.8 +26.0 90 +42 +42 опасность
перегрева
1008.3 1006.5 +33.2 3
15 16.01 СЗ 2 12 км мгла 8/3 750 м
[Sc Ac trans Ci sp]
+26.8 +25.3 92 +39 +39 очень
душно
1010.2 1008.4
18 16.01 СЗ 2 12 км зарница 8/4 500 м
[Cb cap Ac trans Ci sp]
+25.4 +24.2 93 +35 +35 очень
душно
1009.8 1008.0
21 16.01 ЮЗ 1 10 км зарница 8/3 360 м
[Cb cap Ac trans Ci sp]
+25.0 +24.2 95 +34 +34 очень
душно
1008.6 1006.8
00 17.01 СЗ 1 14 км мгла 8/3 600 м
[Cu Sc Ac trans Ci sp]
+24.8 +24.1 96 +34 +35 очень
душно
1009.7 1007.9 +23.6 3
03 17.01 СЗ 2 18 км мгла 8/4 480 м
[Cb cap Ac trans Ci sp]
+27.2 +25.7 92 +40 +46 очень
душно
1011.5 1009.7
06 17.01 СЗ 1 18 км осадки на расстоянии 8/5 480 м
[Cb cap Ac trans Ci sp]
+28.6 +26.5 88 +44 +51 опасность
перегрева
1009.2 1007.5
09 17.01 С 2 6000 м гроза, ливневой дождь 8/8 90 м
[Cb cap Ac trans Cs]
+25.5 +24.9 96 +36 +37 очень
душно
1008.3 1006.5
12 17.01 СЗ 2 9000 м слабый дождь {гроза} 10/4 180 м
[Cb cap Ac lent Cs]
+24.1 +23.6 97 +33 +33 очень
душно
1010.7 1008.9 +28.6 18
15 17.01 З 2 8000 м слабый дождь 8/4 150 м
[Cb cap Ac lent Cs]
+24.5 +23.8 96 +33 +33 очень
душно
1012.5 1010.7
18 17.01 С 1 7000 м слабый дождь 10/5 150 м
[Cb cap Ac lent Cs]
+24.3 +23.9 98 +33 +33 очень
душно
1012.2 1010.4 2
21 17.01 СЗ 1 7000 м слабый дождь 8/4 150 м
[St Ac lent Cs]
+23.9 +23.5 98 +32 +32 очень
душно
1010.1 1008.3
00 18.01 Ю 2 4000 м дымка {дождь} 10/3 <50 м
[St Ac lent Cs]
+23.6 +23.3 98 +32 +32 очень
душно
1012.0 1010.2 +23.7 24
03 18.01 СЗ 4 18 км мгла 8/3 600 м
[Cu med, cong Ac lent Ci sp]
+28.5 +26.2 87 +43 +47 опасность
перегрева
1012.8 1011.0
06 18.01 С 2 18 км мгла 8/5 570 м
[Cu med, cong Ac lent Ci sp]
+32.0 +27.8 79 +52 +58 опасность
перегрева
1010.3 1008.6
09 18.01 С 3 18 км мгла 8/3 500 м
[Cb cap Ac lent Ci sp]
+30.6 +27.0 81 +48 +50 опасность
перегрева
1008.4 1006.7
12 18.01 С 2 12 км мгла 8/1 720 м
[Sc Ac trans Ci fib]
+27.5 +25.6 89 +40 +40 очень
душно
1011.1 1009.3 +32.0
15 18.01 СЗ 1 11 км мгла 8/3 720 м
[Sc Ac trans Ci fib]
+26.0 +25.1 95 +37 +37 очень
душно
1012.7 1010.9
18 18.01 СЗ 2 10 км мгла 8/1 720 м
[Sc Ac trans Ci fib]
+25.1 +24.2 95 +35 +35 очень
душно
1011.8 1010.0
21 18.01 СЗ 3 10 км мгла 8/1 720 м
[Sc Ac trans Ci sp]
+24.5 +23.7 95 +33 +33 очень
душно
1010.3 1008.5
00 19.01 СЗ 1 15 км мгла 8/1 720 м
[Sc Ac lent Ci fib]
+24.2 +23.4 95 +32 +33 очень
душно
1011.6 1009.8 +23.6
03 19.01 С 2 15 км мгла 8/3 540 м
[Cu med, cong Ac lent Ci sp]
+28.4 +26.1 87 +43 +49 опасность
перегрева
1012.5 1010.7
06 19.01 С 2 18 км мгла 8/4 500 м
[Cb cap Ac lent Ci fib]
+30.8 +27.1 81 +49 +56 опасность
перегрева
1010.1 1008.4
09 19.01 СЗ 4 15 км мгла 8/3 500 м
[Cu med, cong Ac lent Ci sp]
+28.3 +26.3 89 +43 +45 опасность
перегрева
1008.3 1006.6
12 19.01 СЗ 2 6000 м в посл. час дождь 8/4 150 м
[Sc Ac lent Cs]
+25.1 +24.6 97 +35 +35 очень
душно
1010.2 1008.4 +31.6 2
15 19.01 СЗ 2 9000 м слабый дождь 8/4 240 м
[Cb cap Ac lent Cs]
+24.6 +24.2 98 +34 +34 очень
душно
1011.9 1010.1
18 19.01 СЗ 3 9000 м дымка {дождь} 8/3 180 м
[Sc Ac lent Ci sp]
+24.5 +23.8 96 +33 +33 очень
душно
1011.5 1009.7 0.4
21 19.01 СЗ 1 8000 м дымка 8/4 150 м
[Sc Ac lent Ci sp]
+24.4 +23.6 95 +33 +33 очень
душно
1009.8 1008.0
00 20.01 штиль 0 10 км дымка 8/3 300 м
[Sc Ac lent Ci fib]
+24.0 +23.5 97 +32 +33 очень
душно
1011.1 1009.3 +23.7 2
03 20.01 С 2 16 км мгла 8/4 570 м
[Cb calv Ac lent Ci sp]
+28.9 +26.1 85 +44 +49 опасность
перегрева
1012.0 1010.2
06 20.01 СВ 2 15 км слабый ливневой дождь 8/4 500 м
[Cu med, cong Ac lent Ci sp]
+30.0 +27.3 85 +48 +55 опасность
перегрева
1009.5 1007.8 0.2
09 20.01 С 3 15 км осадки на расстоянии 8/4 500 м
[Cb cap Ac lent Ci sp]
+29.5 +26.5 84 +45 +47 опасность
перегрева
1007.7 1006.0
12 20.01 СВ 1 1000 м гроза, ливневой дождь 10/5 <50 м
[Cb cap Ac trans Cs]
+23.7 +23.3 98 +32 +32 очень
душно
1010.8 1009.0 +31.7 58
15 20.01 З 1 12 км слабый ливневой дождь, в посл. час гроза 8/4 300 м
[Sc Ac trans Ci sp]
+24.1 +23.7 98 +33 +33 очень
душно
1012.3 1010.5
18 20.01 СЗ 1 12 км в посл. час дождь {гроза} 8/4 240 м
[Sc Ac trans Ci sp]
+24.2 +23.8 98 +33 +33 очень
душно
1011.8 1010.0 32
21 20.01 СЗ 1 6000 м дождь 10/5 120 м
[Cb cap Ac trans Cs]
+24.2 +23.8 98 +33 +33 очень
душно
1010.7 1008.9
00 21.01 СЗ 3 2000 м гроза, ливневой дождь 10/5 210 м
[Cb cap Ac und Cs]
+24.0 +23.6 98 +33 +33 очень
душно
1012.7 1010.9 +23.4 121
03 21.01 С 2 4000 м слабый дождь {гроза} 10/5 120 м
[Cb cap Ac und Cs]
+22.8 +22.4 98 +31 +34 очень
душно
1014.5 1012.7
06 21.01 В 1 4000 м гроза, ливневой дождь 10/5 90 м
[Cb cap Ac und Cs]
+23.5 +23.1 98 +31 +37 очень
душно
1013.2 1011.4 24
09 21.01 С 2 6000 м слабый дождь {гроза} 10/5 210 м
[Cb cap Ac und Cs]
+24.4 +23.7 96 +33 +34 очень
душно
1010.6 1008.8
12 21.01 С 2 4000 м слабый дождь {гроза} 10/5 150 м
[Cb cap Ac lent Cs]
+23.9 +23.4 97 +32 +32 очень
душно
1012.6 1010.8 +24.5 5
15 21.01 СЗ 3 4000 м слабый дождь {гроза} 8/4 150 м
[Cb cap Ac lent Cs]
+23.1 +22.7 98 +32 +32 очень
душно
1015.1 1013.3
18 21.01 З 2 6000 м слабый дождь 8/4 90 м
[Sc Ac lent Cs]
+23.2 +22.7 97 +32 +32 очень
душно
1014.0 1012.2 1
21 21.01 СЗ 2 8000 м дымка {дождь} 8/3 180 м
[St Ac lent Cs]
+23.3 +22.8 97 +32 +32 очень
душно
1012.8 1011.0
00 22.01 СЗ 2 6000 м слабый дождь 8/3 150 м
[Sc Ac lent Cs]
+23.6 +23.1 97 +31 +32 очень
душно
1013.1 1011.3 +22.7 31
03 22.01 СВ 2 4000 м дождь 8/4 150 м
[Sc Ac lent Cs]
+25.7 +25.2 97 +37 +42 очень
душно
1014.6 1012.8
06 22.01 С 5 7000 м в посл. час дождь 9/3 570 м
[Cu med, cong Ac lent Cs]
+28.9 +26.3 86 +44 +48 опасность
перегрева
1012.1 1010.3 10
09 22.01 С 4 8000 м слабый дождь 8/3 540 м
[Sc Ac lent Cs]
+27.5 +25.6 89 +40 +42 очень
душно
1010.5 1008.7

 

Местоположение метеостанции Kuantan (Малайзия): широта 3.78 долгота 103.21 высота над уровнем моря 16 м.

В архиве по умолчанию представлена погода в Kuantan за последнюю неделю. Архивные данные за месяц целиком и за предыдущие месяцы, начиная с января 2011 года, Вы можете получить, выбрав интересующий диапазон дат из раскрывающегося списка и нажав кнопку "Ввод!".

Внимание! Время в таблицах - всемирное. Для получения местного времени необходимо прибавить поправку, которая в Kuantan равна 7 ч.

Ветер - указаны скорость ветра в м/с - средняя за 10 мин, порывы в срок и между сроками (в фигурных скобках) и направление, откуда дует ветер: С - северный, СВ - северо-восточный, В - восточный, ЮВ - юго-восточный, Ю - южный, ЮЗ - юго-западный, З - западный, СЗ - северо-западный.
Видимость - горизонтальная дальность видимости в метрах или километрах. При видимости от 1 до 10 км при отсутствии осадков обычно наблюдается дымка, при ухудшении видимости до 1 км и менее - туман. В сухую погоду видимость может ухудшаться дымом, пылью или мглою.
Явления - указаны атмосферные явления, наблюдавшиеся в срок или в последний час перед сроком; фигурными скобками обозначены явления, наблюдавшиеся между сроками (за 1-3 часа до срока); квадратными скобками обозначены град или гололедные отложения с указанием их диаметра в мм.
Облачность - указаны через наклонную черту общая и нижняя облачность в баллах и высота нижней границы облаков в метрах; квадратными скобками обозначены формы облаков: Ci - перистые, Cs - перисто-слоистые, Cc - перисто-кучевые, Ac - высококучевые, As - высокослоистые, Sc - слоисто-кучевые, Ns - слоисто-дождевые, Cu - кучевые, Cb - кучево-дождевые. Подробнее классификацию облаков см. в Атласе облаков (PDF).
T - Температура воздуха - температура, измеренная на высоте 2 м над землей.
Td - Температура точки росы - температура, при понижении до которой содержащийся в воздухе водяной пар достигнет насыщения.
f - Относительная влажность воздуха - влажноcть воздуха, измеренная на высоте 2 м над землей.
Te - Эффективная температура - температура, которую ощущает одетый по сезону человек в тени. Характеристика душности погоды. При расчете учитывается влияние влажности воздуха и скорости ветра на теплоощущения человека.
Tes - Эффективная температура на солнце - температура, которую ощущает человек, с поправкой на солнечный нагрев. Характеристика знойности погоды. Зависит от высоты солнца над горизонтом, облачности и скорости ветра. Ночью, в пасмурную погоду, а также при ветре 12 м/с и более поправка равна нулю.
P - Атмосферное давление - приведенное к уровню моря атмосферное давление.
Po - Атмосферное давление - измеренное на уровне метеостанции атмосферное давление.
Tmin - Минимальная температура - минимум температуры воздуха на высоте 2 м над землей.
Tmax - Максимальная температура - максимум температуры воздуха на высоте 2 м над землей.
R - Количество осадков - Количество выпавших осадков, мм. При наведении курсора мыши на число - период времени, за который выпало указанное количество осадков.
S - Снежный покров - Высота снежного покрова, см. При наведении курсора мыши на число - состояние снежного покрова и степень покрытия местности в баллах.